Location: Miles
(41.4492°N, 81.6087°W)
Time: 16:56:24
(UTC+00:00)

A-11 Canister half - Pass Details

Date: 17 September 2024
Orbit: 1515 x 1685 km, 47.2° (Epoch: 14 October)

Event Time Altitude Azimuth Distance (km) Brightness Sun altitude
Rises 02:00:20 0° 271° (W) 4,707 12.5 -27.1°
Reaches altitude 10° 02:03:29 10° 275° (W) 3,708 11.8 -27.6°
Maximum altitude 02:12:42 62° 355° (N) 1,679 9.2 -29.1°
Enters shadow 02:17:15 33° 63° (ENE) 2,342 9.7 -29.8°
